"Pseudo-MPEC" for p0003r

Created 2025 Apr 28 12:31:12 UT using Find_Orb

Click here for an explanation of pseudo-MPECs

 
 Astrometry: 
     p0003r * C2025 04 15.54431615 18 21.581+34 14 52.72   ~4FN2 20.57iXNEOCPF51
     p0003r   C2025 04 15.55463015 18 21.727+34 14 51.83   ~4FN2 20.34iXNEOCPF51
     p0003r   C2025 04 15.56475615 18 21.847+34 14 52.05   ~4FN2 20.6 iXNEOCPF51
     p0003r   C2025 04 15.57468215 18 21.916+34 14 53.35   ~4FN2 20.58iXNEOCPF51

Station data:
(F51) Pan-STARRS 1, Haleakala  (N20.707234 W156.255910)  US/Hawaii.
   Observers J. Bulger, T. Lowe, A. Schultz, M. Willman. Measurers K.
   Chambers, S. Chastel, T. de Boer, L. Denneau, J. Fairlamb, H. Flewelling,
   M. Huber, C.-C. Lin, E. Magnier, Y. Ramanjooloo, R. Wainscoat, R. Weryk.
   1.8-m Ritchey-Chrétien + CCD.

Orbital elements:  p0003r
   Perihelion 2025 Mar 6.00025 +/- 27 TT =  0:00:21 (JD 2460740.50025)
Epoch 2025 Apr 16.0 TT = JDT 2460781.5   Earth MOID: 0.2526      AutoNEOCP
M  10.32872980 +/- 9                (J2000 ecliptic)
n   0.25192177 +/- 0.14             Peri.   27.11459 +/- 40
a   2.48289819 +/- 0.918            Node   146.08633 +/- 18
e   0.5078490 +/- 0.139             Incl.   15.77025 +/- 4.1
P   3.91236                H 20.74  G  0.15   U 11.4  SR
q 1.22196073 +/- 0.104    Q 3.74383564 +/- 1.16
From 4 observations 2025 Apr. 15 (43.7 min); mean residual 0".44
Residuals in arcseconds: 
250415 F51  .25-  .57+    250415 F51  .29+  .57-    
250415 F51  .18+  .58-    250415 F51  .23-  .58+    

Ephemerides (geocentric):
Date (UTC) HH   RA             Dec           delta  r     elong  mag " sig PA
---- --------  ------------   ------------  ------ ------ -----  --- --------
2025 04 28 13  15 19 13.753   +33 14 44.04  .46173 1.3539 130.7 21.1  780  65
2025 04 28 14  15 19 13.397   +33 14 19.69  .46192 1.3541 130.7 21.1  782  65
2025 04 28 15  15 19 13.039   +33 13 55.26  .46211 1.3543 130.7 21.1  785  65
2025 04 28 16  15 19 12.678   +33 13 30.75  .46230 1.3545 130.7 21.1  788  64
2025 04 28 17  15 19 12.316   +33 13 06.16  .46250 1.3547 130.7 21.1  790  64
2025 04 28 18  15 19 11.951   +33 12 41.50  .46269 1.3549 130.7 21.1  793  64
2025 04 28 19  15 19 11.585   +33 12 16.76  .46288 1.3551 130.7 21.1  795  64
2025 04 28 20  15 19 11.216   +33 11 51.95  .46307 1.3552 130.7 21.1  798  64
2025 04 28 21  15 19 10.845   +33 11 27.06  .46326 1.3554 130.7 21.2  801  63
2025 04 28 22  15 19 10.472   +33 11 02.09  .46346 1.3556 130.7 21.2  803  63
2025 04 28 23  15 19 10.097   +33 10 37.04  .46365 1.3558 130.7 21.2  806  63
2025 04 29 00  15 19 09.720   +33 10 11.92  .46384 1.3560 130.7 21.2  809  63
2025 04 29 01  15 19 09.341   +33 09 46.72  .46403 1.3562 130.7 21.2  811  62
2025 04 29 02  15 19 08.960   +33 09 21.45  .46423 1.3564 130.7 21.2  814  62
2025 04 29 03  15 19 08.576   +33 08 56.10  .46442 1.3566 130.7 21.2  817  62
2025 04 29 04  15 19 08.191   +33 08 30.67  .46461 1.3568 130.7 21.2  819  62
2025 04 29 05  15 19 07.804   +33 08 05.16  .46481 1.3570 130.8 21.2  822  62
2025 04 29 06  15 19 07.415   +33 07 39.58  .46500 1.3571 130.8 21.2  825  61
2025 04 29 07  15 19 07.024   +33 07 13.93  .46519 1.3573 130.8 21.2  828  61
2025 04 29 08  15 19 06.631   +33 06 48.19  .46538 1.3575 130.8 21.2  830  61
2025 04 29 09  15 19 06.236   +33 06 22.39  .46558 1.3577 130.8 21.2  833  61
2025 04 29 10  15 19 05.839   +33 05 56.50  .46577 1.3579 130.8 21.2  836  60
2025 04 29 11  15 19 05.441   +33 05 30.54  .46597 1.3581 130.8 21.2  839  60
2025 04 29 12  15 19 05.040   +33 05 04.50  .46616 1.3583 130.8 21.2  842  60
2025 04 29 13  15 19 04.637   +33 04 38.39  .46635 1.3585 130.8 21.2  844  60
2025 04 29 14  15 19 04.233   +33 04 12.20  .46655 1.3587 130.8 21.2  847  60
2025 04 29 15  15 19 03.826   +33 03 45.94  .46674 1.3589 130.8 21.2  850  59
2025 04 29 16  15 19 03.418   +33 03 19.60  .46694 1.3591 130.8 21.2  853  59
2025 04 29 17  15 19 03.008   +33 02 53.18  .46713 1.3592 130.8 21.2  856  59
2025 04 29 18  15 19 02.596   +33 02 26.69  .46732 1.3594 130.8 21.2  859  59
2025 04 29 19  15 19 02.182   +33 02 00.13  .46752 1.3596 130.8 21.2  862  58
2025 04 29 20  15 19 01.767   +33 01 33.48  .46771 1.3598 130.8 21.2  865  58
2025 04 29 21  15 19 01.349   +33 01 06.77  .46791 1.3600 130.8 21.2  868  58
2025 04 29 22  15 19 00.930   +33 00 39.98  .46810 1.3602 130.8 21.2  871  58
2025 04 29 23  15 19 00.509   +33 00 13.11  .46830 1.3604 130.8 21.2  874  57
2025 04 30 00  15 19 00.087   +32 59 46.17  .46849 1.3606 130.8 21.2  877  57
2025 04 30 01  15 18 59.662   +32 59 19.15  .46869 1.3608 130.8 21.2  880  57
2025 04 30 02  15 18 59.236   +32 58 52.05  .46888 1.3610 130.8 21.2  883  57
2025 04 30 03  15 18 58.808   +32 58 24.89  .46908 1.3612 130.8 21.2  886  56
2025 04 30 04  15 18 58.378   +32 57 57.64  .46927 1.3614 130.9 21.2  889  56
2025 04 30 05  15 18 57.947   +32 57 30.33  .46947 1.3615 130.9 21.2  893  56
2025 04 30 06  15 18 57.513   +32 57 02.94  .46967 1.3617 130.9 21.2  896  56
2025 04 30 07  15 18 57.079   +32 56 35.47  .46986 1.3619 130.9 21.2  899  56
2025 04 30 08  15 18 56.642   +32 56 07.93  .47006 1.3621 130.9 21.2  902  55
2025 04 30 09  15 18 56.204   +32 55 40.31  .47025 1.3623 130.9 21.2  905  55
2025 04 30 10  15 18 55.764   +32 55 12.62  .47045 1.3625 130.9 21.2  909  55
2025 04 30 11  15 18 55.322   +32 54 44.86  .47065 1.3627 130.9 21.2  912  55
2025 04 30 12  15 18 54.879   +32 54 17.02  .47084 1.3629 130.9 21.2  915  54